Mansfield, OH

1:49 PM EDT on August 18, 2017 (GMT -0400)
Mansfield Lahm Regional

Weather History for KMFD - October, 2012

Change the Weather History Date:

Monday, October 29, 2012

  Actual Average Record
Temperature  
Mean Temperature 38 °F 48 °F  
Max Temperature 41 °F 57 °F 79 °F (1922)
Min Temperature 34 °F 38 °F 17 °F (1925)
Degree Days  
Heating Degree Days 27 17  
Month to date heating degree days 357 382  
Since 1 July heating degree days 518 532  
Cooling Degree Days 0 0  
Month to date cooling degree days 8 5  
Year to date cooling degree days 955 630  
Moisture  
Dew Point 37 °F    
Average Humidity 96    
Maximum Humidity 100    
Minimum Humidity 92    
Precipitation  
Precipitation 1.24 in 0.10 in 1.24 in (2012)
Month to date precipitation 6.43 2.73  
Year to date precipitation 34.61 36.88  
Snow  
Snow T in 0.00 in - ()
Month to date snowfall T 0.4  
Since 1 July snowfall T 0.4  
Since 1 September snowfall T 0.4  
Snow Depth 0.00 in    
Sea Level Pressure  
Sea Level Pressure 29.79 in    
Wind  
Wind Speed 22 mph (NNW)    
Max Wind Speed 35 mph    
Max Gust Speed 46 mph    
Visibility 7 miles    
Events Rain , Snow    
T = Trace of Precipitation, MM = Missing Value Source: NWS Daily Summary

Daily Weather History Graph

Daily Weather History Graph

Search for Another Location

Airport or City:

Trip Planner

Search our weather history database for the weather conditions in past years. The results will help you decide how hot, cold, wet, or windy it might be!

Date:

Astronomy

Oct. 29, 2012 Rise Set
Actual Time 7:57 AM EDT 6:29 PM EDT
Civil Twilight 7:29 AM EDT 6:57 PM EDT
Nautical Twilight 6:57 AM EDT 7:29 PM EDT
Astronomical Twilight 6:25 AM EDT 8:01 PM EDT
Moon 6:20 PM EDT (10/29) 7:47 AM EDT (10/29)
Length of Visible Light 11h 28m
Length of Day
10h 31m
Full, 100% of the Moon is Illuminated
Oct 29
Full
Oct 29
Full
Nov 6
Last Quarter
Nov 13
New
Nov 20
First Quarter

Hourly Weather History & Observations

Time (EDT) Temp. Windchill Dew Point Humidity Pressure Visibility Wind Dir Wind Speed Gust Speed Precip Events Conditions
12:52 AM 39.0 °F 29.0 °F 37.9 °F 96% 29.97 in 10.0 mi North 20.7 mph 27.6 mph 0.01 in Rain Light Rain
1:52 AM 39.0 °F 30.3 °F 37.9 °F 96% 29.96 in 8.0 mi North 16.1 mph 24.2 mph 0.02 in Rain Light Rain
1:59 AM 39.2 °F 29.6 °F 37.4 °F 93% 29.93 in 9.0 mi NNW 19.6 mph 27.6 mph 0.00 in Rain Light Rain
2:12 AM 39.2 °F 29.8 °F 37.4 °F 93% 29.94 in 10.0 mi NNW 18.4 mph 26.5 mph 0.01 in Rain Light Rain
2:52 AM 39.0 °F 29.9 °F 37.9 °F 96% 29.96 in 10.0 mi North 17.3 mph 26.5 mph 0.04 in Rain Light Rain
3:52 AM 39.0 °F 30.6 °F 37.9 °F 96% 29.94 in 10.0 mi NNW 15.0 mph 26.5 mph 0.04 in Rain Light Rain
4:13 AM 39.2 °F 30.2 °F 37.4 °F 93% 29.91 in 10.0 mi NNW 17.3 mph 24.2 mph 0.02 in Rain Light Rain
4:52 AM 39.0 °F 30.3 °F 37.9 °F 96% 29.93 in 10.0 mi NNW 16.1 mph 24.2 mph 0.06 in Rain Light Rain
6:52 AM 37.9 °F - 37.0 °F 97% 29.92 in 7.0 mi North - - 0.05 in Rain Light Rain
7:52 AM 39.0 °F 30.3 °F 37.9 °F 96% 29.92 in 7.0 mi NNW 16.1 mph 27.6 mph 0.03 in Rain Light Rain
8:52 AM 39.0 °F 29.3 °F 39.0 °F 100% 29.91 in 6.0 mi NNW 19.6 mph 24.2 mph 0.06 in Rain Light Rain
9:52 AM 39.0 °F 29.9 °F 37.9 °F 96% 29.90 in 6.0 mi NNW 17.3 mph 28.8 mph 0.04 in Rain Light Rain
10:52 AM 39.9 °F 30.8 °F 39.0 °F 97% 29.90 in 6.0 mi NNW 18.4 mph 25.3 mph 0.03 in Rain Light Rain
11:52 AM 39.9 °F 30.8 °F 39.0 °F 97% 29.89 in 4.0 mi NNW 18.4 mph 28.8 mph 0.03 in Rain Light Rain
12:52 PM 39.9 °F 30.0 °F 39.0 °F 97% 29.86 in 4.0 mi NNW 21.9 mph 32.2 mph 0.03 in Rain Light Rain
1:52 PM 39.9 °F 30.8 °F 39.0 °F 97% 29.84 in 4.0 mi NNW 18.4 mph 29.9 mph 0.05 in Rain Light Rain
2:52 PM 41.0 °F 31.4 °F 39.9 °F 96% 29.81 in 3.0 mi NNW 21.9 mph 34.5 mph 0.06 in Rain Light Rain
3:52 PM 39.9 °F 30.0 °F 39.0 °F 97% 29.80 in 3.0 mi NNW 21.9 mph 29.9 mph 0.05 in Rain Light Rain
4:15 PM 39.2 °F 28.3 °F 39.2 °F 100% 29.76 in 7.0 mi NNW 25.3 mph 36.8 mph 0.01 in Rain Light Rain
4:26 PM 39.2 °F 28.3 °F 39.2 °F 100% 29.75 in 7.0 mi NW 25.3 mph 31.1 mph 0.02 in Rain Light Rain
4:52 PM 39.9 °F 29.7 °F 39.0 °F 97% 29.77 in 8.0 mi NNW 23.0 mph 36.8 mph 0.03 in Rain Light Rain
5:52 PM 39.2 °F 28.3 °F 37.4 °F 93% 29.72 in 10.0 mi NNW 25.3 mph 43.7 mph N/A Rain Light Rain
6:52 PM 37.9 °F 26.3 °F 37.0 °F 97% 29.73 in 9.0 mi NNW 26.5 mph 38.0 mph 0.04 in Rain Light Rain
7:35 PM 37.4 °F 25.6 °F 35.6 °F 93% 29.68 in 7.0 mi NNW 26.5 mph 41.4 mph 0.03 in Rain Light Rain
7:42 PM 37.4 °F 25.6 °F 35.6 °F 93% 29.68 in 9.0 mi NNW 26.5 mph 39.1 mph 0.03 in Rain Light Rain
7:52 PM 37.0 °F 24.7 °F 36.0 °F 96% 29.70 in 10.0 mi NNW 28.8 mph 41.4 mph 0.04 in Rain Light Rain
8:52 PM 36.0 °F 22.8 °F 35.1 °F 97% 29.66 in 5.0 mi NW 31.1 mph 39.1 mph 0.07 in Snow Light Snow
9:52 PM 36.0 °F 23.7 °F 35.1 °F 97% 29.62 in 4.0 mi NW 26.5 mph 41.4 mph 0.06 in Snow Light Snow
10:45 PM 35.6 °F 23.0 °F 33.8 °F 93% 29.55 in 2.5 mi NW 27.6 mph 40.3 mph 0.10 in Snow Light Snow
10:52 PM 35.1 °F 23.3 °F 34.0 °F 96% 29.57 in 2.5 mi NW 23.0 mph 40.3 mph 0.12 in Snow Light Snow
11:09 PM 35.6 °F 22.7 °F 33.8 °F 93% 29.53 in 3.0 mi NW 28.8 mph 36.8 mph 0.02 in Snow Light Snow
11:19 PM 35.6 °F 22.7 °F 33.8 °F 93% 29.51 in 2.5 mi NW 28.8 mph 41.4 mph 0.04 in Snow Light Snow
11:52 PM 35.1 °F 22.5 °F 34.0 °F 96% 29.52 in 3.0 mi NW 26.5 mph 44.9 mph 0.09 in Snow Light Snow